SVA237 OEJN-LSGG

Flight info

Callsign SVA237
Flight time N/A
Altitude 34000
Route BOMOX M686 OTEMO T55 KUNKI P751 METRU DCT TUMBO DCT VAKSU DCT BAXON DCT SUXAN L613 RIPUS DCT WIL T544 FRIBU
Aircraft A320/M-SDE3FGHIRWY/LB1

Departure

Time 2026-04-28 08:28
Airport King Abdulaziz International Airport (OEJN)

Arrival

Time N/A
Airport Geneva International Airport (LSGG)
Time Latitude Longitude Altitude Speed Heading
2026-04-28 08:10 21.66532 39.17096 63 ft 0 kts 79°
2026-04-28 08:10 21.66532 39.17095 63 ft 0 kts 79°
2026-04-28 08:20 21.66531 39.17090 35 ft 4 kts 79°
2026-04-28 08:20 21.66527 39.17061 35 ft 4 kts 88°
2026-04-28 08:20 21.66528 39.17032 35 ft 4 kts 98°
2026-04-28 08:21 21.66535 39.17004 35 ft 4 kts 118°
2026-04-28 08:21 21.66551 39.16985 31 ft 3 kts 160°
2026-04-28 08:21 21.66553 39.16984 32 ft 3 kts 162°
2026-04-28 08:22 21.66554 39.16984 32 ft 0 kts 162°
2026-04-28 08:23 21.66553 39.16984 35 ft 0 kts 162°
2026-04-28 08:23 21.66526 39.16993 35 ft 12 kts 164°
2026-04-28 08:24 21.66445 39.17017 35 ft 11 kts 165°
2026-04-28 08:24 21.66378 39.17022 36 ft 9 kts 183°
2026-04-28 08:24 21.66329 39.17006 36 ft 6 kts 221°
2026-04-28 08:24 21.66305 39.16973 36 ft 5 kts 234°
2026-04-28 08:25 21.66289 39.16940 36 ft 10 kts 247°
2026-04-28 08:25 21.66259 39.16852 35 ft 12 kts 250°
2026-04-28 08:25 21.66233 39.16774 34 ft 10 kts 250°
2026-04-28 08:26 21.66194 39.16658 35 ft 7 kts 250°
2026-04-28 08:26 21.66179 39.16613 33 ft 8 kts 250°
2026-04-28 08:26 21.66158 39.16551 34 ft 9 kts 250°
2026-04-28 08:26 21.66171 39.16465 33 ft 18 kts 326°
2026-04-28 08:27 21.66236 39.16440 33 ft 2 kts 339°
2026-04-28 08:27 21.66479 39.16345 35 ft 71 kts 340°
2026-04-28 08:27 21.67128 39.16091 32 ft 125 kts 340°
2026-04-28 08:27 21.68088 39.15713 38 ft 166 kts 340°
2026-04-28 08:28 21.69170 39.15260 567 ft 170 kts 339°
2026-04-28 08:28 21.70323 39.14786 1042 ft 178 kts 341°
2026-04-28 08:28 21.71499 39.14330 1511 ft 186 kts 340°
2026-04-28 08:28 21.72781 39.13835 1764 ft 211 kts 340°
2026-04-28 08:29 21.74240 39.13270 2127 ft 235 kts 340°
2026-04-28 08:29 21.75827 39.12653 2723 ft 249 kts 340°
2026-04-28 08:29 21.77486 39.12001 3348 ft 257 kts 339°
2026-04-28 08:29 21.79179 39.11332 4083 ft 262 kts 338°
2026-04-28 08:30 21.80920 39.10643 4679 ft 271 kts 338°
2026-04-28 08:30 21.82715 39.09932 5270 ft 277 kts 337°
2026-04-28 08:30 21.84542 39.09207 5913 ft 283 kts 337°
2026-04-28 08:30 21.86408 39.08466 6544 ft 287 kts 337°
2026-04-28 08:31 21.88294 39.07720 7204 ft 290 kts 337°
2026-04-28 08:31 21.90192 39.06961 7880 ft 291 kts 335°
2026-04-28 08:31 21.92072 39.06119 8566 ft 293 kts 333°
2026-04-28 08:31 21.93942 39.05225 9222 ft 296 kts 332°
2026-04-28 08:32 21.95823 39.04302 9882 ft 299 kts 332°
2026-04-28 08:32 21.97745 39.03356 10248 ft 313 kts 332°
2026-04-28 08:32 21.99798 39.02350 10384 ft 335 kts 332°
2026-04-28 08:32 22.01985 39.01288 10517 ft 354 kts 332°
2026-04-28 08:33 22.04278 39.00186 10900 ft 363 kts 332°
2026-04-28 08:33 22.06605 38.99073 11421 ft 368 kts 332°
2026-04-28 08:33 22.08953 38.97953 11952 ft 371 kts 332°
2026-04-28 08:33 22.11330 38.96821 12503 ft 375 kts 332°
2026-04-28 08:34 22.13727 38.95678 13052 ft 379 kts 332°
2026-04-28 08:34 22.16145 38.94523 13599 ft 382 kts 332°
2026-04-28 08:34 22.18587 38.93353 14093 ft 385 kts 333°
2026-04-28 08:34 22.21043 38.92180 14594 ft 387 kts 333°
2026-04-28 08:35 22.23460 38.90894 15103 ft 386 kts 325°
2026-04-28 08:35 22.25602 38.89168 15600 ft 384 kts 314°
2026-04-28 08:35 22.27380 38.87035 16107 ft 382 kts 303°
2026-04-28 08:35 22.28778 38.84603 16604 ft 382 kts 297°
2026-04-28 08:36 22.30082 38.82137 17097 ft 383 kts 297°
2026-04-28 08:36 22.31408 38.79631 17578 ft 385 kts 297°
2026-04-28 08:36 22.32744 38.77113 18052 ft 388 kts 297°
2026-04-28 08:36 22.34090 38.74574 18464 ft 390 kts 297°
2026-04-28 08:37 22.35444 38.72025 18880 ft 392 kts 297°
2026-04-28 08:37 22.36810 38.69458 19294 ft 393 kts 297°
2026-04-28 08:37 22.38177 38.66890 19702 ft 395 kts 297°
2026-04-28 08:37 22.39551 38.64305 20121 ft 397 kts 297°
2026-04-28 08:38 22.40927 38.61709 20526 ft 399 kts 297°
2026-04-28 08:38 22.42307 38.59102 20921 ft 400 kts 296°
2026-04-28 08:38 22.43691 38.56483 21322 ft 402 kts 296°
2026-04-28 08:38 22.45080 38.53853 21707 ft 404 kts 296°
2026-04-28 08:39 22.47462 38.49343 22385 ft 407 kts 296°
2026-04-28 08:39 22.50755 38.44313 23135 ft 418 kts 311°
2026-04-28 08:39 22.55264 38.40330 23784 ft 426 kts 316°
2026-04-28 08:39 22.59910 38.36331 24399 ft 427 kts 316°
2026-04-28 08:40 22.64553 38.32298 24999 ft 429 kts 316°
2026-04-28 08:40 22.69215 38.28244 25577 ft 430 kts 315°
2026-04-28 08:40 22.73898 38.24175 26184 ft 431 kts 315°
2026-04-28 08:40 22.78587 38.20111 26751 ft 431 kts 315°
2026-04-28 08:41 22.83282 38.16044 27278 ft 432 kts 315°
2026-04-28 08:41 22.87983 38.11955 27724 ft 434 kts 314°
2026-04-28 08:41 22.91108 38.09237 28007 ft 435 kts 314°
2026-04-28 08:41 22.95839 38.05127 28412 ft 436 kts 314°
2026-04-28 08:42 23.00587 38.00997 28794 ft 438 kts 314°
2026-04-28 08:42 23.05343 37.96850 29163 ft 439 kts 314°
2026-04-28 08:42 23.10108 37.92694 29654 ft 438 kts 314°
2026-04-28 08:42 23.14845 37.88557 30141 ft 436 kts 313°
2026-04-28 08:43 23.19550 37.84433 30531 ft 434 kts 313°
2026-04-28 08:43 23.24250 37.80318 30921 ft 433 kts 314°
2026-04-28 08:43 23.28922 37.76224 31329 ft 431 kts 313°
2026-04-28 08:43 23.33586 37.72134 31736 ft 429 kts 314°
2026-04-28 08:44 23.38220 37.68071 32226 ft 426 kts 314°
2026-04-28 08:44 23.42813 37.64038 32794 ft 421 kts 313°
2026-04-28 08:44 23.47366 37.60036 33340 ft 417 kts 313°
2026-04-28 08:44 23.51858 37.56077 33817 ft 414 kts 313°
2026-04-28 08:45 23.56342 37.52114 33938 ft 413 kts 313°
2026-04-28 08:45 23.65236 37.44257 33932 ft 410 kts 313°
2026-04-28 08:46 23.74043 37.36455 33979 ft 410 kts 312°
2026-04-28 08:46 23.82879 37.28637 33939 ft 408 kts 313°
2026-04-28 08:47 23.91701 37.20797 33949 ft 408 kts 312°
2026-04-28 08:47 24.00524 37.12964 33951 ft 408 kts 312°
2026-04-28 08:48 24.09328 37.05115 33977 ft 408 kts 312°
2026-04-28 08:48 24.18118 36.97278 33974 ft 406 kts 312°
2026-04-28 08:49 24.26863 36.89451 33967 ft 405 kts 312°
2026-04-28 08:49 24.35584 36.81634 33956 ft 404 kts 311°
2026-04-28 08:50 24.44293 36.73815 33989 ft 404 kts 311°
2026-04-28 08:50 24.52987 36.66006 33967 ft 403 kts 311°
2026-04-28 08:51 24.61299 36.57915 33954 ft 388 kts 298°
2026-04-28 08:51 24.63625 36.52743 33949 ft 375 kts 284°
2026-04-28 08:51 24.65295 36.47306 33958 ft 375 kts 284°
2026-04-28 08:52 24.68704 36.36441 33955 ft 376 kts 284°
2026-04-28 08:52 24.72067 36.25556 33950 ft 376 kts 284°
2026-04-28 08:53 24.75404 36.14732 33957 ft 375 kts 284°
2026-04-28 08:53 24.78758 36.03841 33956 ft 375 kts 284°
2026-04-28 08:54 24.82092 35.92972 33956 ft 375 kts 284°
2026-04-28 08:54 24.85413 35.82084 33957 ft 375 kts 284°
2026-04-28 08:55 24.88744 35.71205 33959 ft 374 kts 284°
2026-04-28 08:55 24.92050 35.60329 33964 ft 374 kts 284°
2026-04-28 08:56 24.95340 35.49461 33969 ft 374 kts 284°
2026-04-28 08:56 24.98627 35.38585 33966 ft 373 kts 284°
2026-04-28 08:57 25.01880 35.27796 33964 ft 373 kts 284°
2026-04-28 08:57 25.05143 35.16953 33968 ft 373 kts 284°
2026-04-28 08:57 25.07729 35.11923 33968 ft 390 kts 304°
2026-04-28 08:58 25.11641 35.07700 33965 ft 394 kts 306°
2026-04-28 08:58 25.19434 34.99196 33981 ft 395 kts 306°
2026-04-28 08:59 25.27267 34.90666 33969 ft 395 kts 306°
2026-04-28 08:59 25.35101 34.82126 33968 ft 395 kts 306°
2026-04-28 09:00 25.42947 34.73563 33971 ft 396 kts 306°
2026-04-28 09:00 25.50734 34.65043 33997 ft 396 kts 306°
2026-04-28 09:01 25.58558 34.56440 33997 ft 395 kts 305°
2026-04-28 09:01 25.65677 34.47256 33995 ft 390 kts 301°
2026-04-28 09:02 25.72689 34.38013 33985 ft 392 kts 302°
2026-04-28 09:02 25.79757 34.28827 33987 ft 392 kts 302°
2026-04-28 09:03 25.86816 34.19616 33990 ft 391 kts 302°
2026-04-28 09:03 25.93824 34.10460 33976 ft 390 kts 302°
2026-04-28 09:04 26.00843 34.01247 33969 ft 391 kts 302°
2026-04-28 09:04 26.07868 33.92014 33988 ft 391 kts 302°
2026-04-28 09:05 26.14894 33.82777 33982 ft 391 kts 302°
2026-04-28 09:05 26.21919 33.73511 33987 ft 391 kts 302°
2026-04-28 09:06 26.28945 33.64240 33992 ft 391 kts 302°
2026-04-28 09:06 26.35951 33.54955 33968 ft 390 kts 302°
2026-04-28 09:07 26.42959 33.45649 33966 ft 391 kts 302°
2026-04-28 09:07 26.49981 33.36330 33965 ft 391 kts 302°
2026-04-28 09:08 26.56990 33.26980 33995 ft 392 kts 302°
2026-04-28 09:08 26.63996 33.17635 33997 ft 392 kts 302°
2026-04-28 09:09 26.71004 33.08280 33985 ft 392 kts 302°
2026-04-28 09:09 26.77975 32.98908 33977 ft 392 kts 302°
2026-04-28 09:10 26.84936 32.89572 33981 ft 393 kts 302°
2026-04-28 09:10 26.91932 32.80150 33991 ft 393 kts 302°
2026-04-28 09:11 26.98925 32.70710 33992 ft 393 kts 302°
2026-04-28 09:11 27.05919 32.61258 33993 ft 393 kts 303°
2026-04-28 09:12 27.12930 32.51760 33983 ft 395 kts 303°
2026-04-28 09:12 27.19955 32.42226 33988 ft 397 kts 303°
2026-04-28 09:13 27.26984 32.32664 34001 ft 397 kts 303°
2026-04-28 09:13 27.33889 32.23005 34007 ft 395 kts 301°
2026-04-28 09:14 27.40544 32.13162 34019 ft 395 kts 301°
2026-04-28 09:14 27.47251 32.03359 34072 ft 395 kts 301°
2026-04-28 09:15 27.53970 31.93511 34062 ft 397 kts 301°
2026-04-28 09:15 27.60697 31.83638 34066 ft 397 kts 301°
2026-04-28 09:16 27.67424 31.73726 34086 ft 398 kts 301°
2026-04-28 09:16 27.74154 31.63802 34079 ft 398 kts 301°
2026-04-28 09:17 27.80875 31.53856 34078 ft 398 kts 301°
2026-04-28 09:17 27.87600 31.43889 34090 ft 399 kts 302°
2026-04-28 09:18 27.94330 31.33899 34086 ft 400 kts 302°
2026-04-28 09:18 28.01074 31.23845 34105 ft 401 kts 302°
2026-04-28 09:19 28.07821 31.13734 34089 ft 401 kts 301°
2026-04-28 09:19 28.14000 31.03245 34089 ft 400 kts 298°
2026-04-28 09:20 28.20150 30.92725 34089 ft 400 kts 299°
2026-04-28 09:20 28.26305 30.82285 34080 ft 400 kts 299°
2026-04-28 09:21 28.32478 30.71753 34102 ft 401 kts 300°
2026-04-28 09:21 28.38654 30.61178 34082 ft 402 kts 300°
2026-04-28 09:22 28.44844 30.50574 34084 ft 402 kts 300°
2026-04-28 09:22 28.49983 30.41734 34082 ft 403 kts 299°
2026-04-28 09:23 28.56161 30.31094 34091 ft 403 kts 300°
2026-04-28 09:23 28.62343 30.20445 34086 ft 403 kts 300°
2026-04-28 09:24 28.68508 30.09781 34105 ft 403 kts 300°
2026-04-28 09:24 28.74643 29.99117 34117 ft 402 kts 300°
2026-04-28 09:25 28.80770 29.88479 34097 ft 401 kts 300°
2026-04-28 09:25 28.86876 29.77834 34078 ft 401 kts 300°
2026-04-28 09:26 28.92970 29.67176 34069 ft 400 kts 300°
2026-04-28 09:26 28.99051 29.56512 34060 ft 400 kts 300°
2026-04-28 09:27 29.08153 29.40518 34059 ft 400 kts 300°
2026-04-28 09:27 29.15086 29.30692 34056 ft 409 kts 318°
2026-04-28 09:28 29.24162 29.22849 34077 ft 407 kts 318°
2026-04-28 09:28 29.33168 29.15018 34072 ft 406 kts 318°
2026-04-28 09:29 29.42164 29.07203 34073 ft 405 kts 318°
2026-04-28 09:29 29.51145 28.99361 34097 ft 405 kts 318°
2026-04-28 09:30 29.60068 28.91540 34071 ft 402 kts 318°
2026-04-28 09:30 29.68943 28.83729 34067 ft 400 kts 318°
2026-04-28 09:31 29.77785 28.75940 34058 ft 400 kts 318°
2026-04-28 09:31 29.86639 28.68144 34084 ft 400 kts 318°
2026-04-28 09:32 29.95394 28.60398 34074 ft 398 kts 318°
2026-04-28 09:32 30.04179 28.52619 34064 ft 398 kts 318°
2026-04-28 09:33 30.12930 28.44830 34059 ft 397 kts 318°
2026-04-28 09:33 30.21689 28.37029 34062 ft 397 kts 318°
2026-04-28 09:34 30.30432 28.29242 34066 ft 396 kts 318°
2026-04-28 09:34 30.39176 28.21423 34065 ft 396 kts 318°
2026-04-28 09:35 30.47904 28.13596 34088 ft 396 kts 318°
2026-04-28 09:35 30.56613 28.05762 34069 ft 396 kts 318°
2026-04-28 09:36 30.65325 27.97936 34071 ft 395 kts 318°
2026-04-28 09:36 30.73983 27.90105 34071 ft 394 kts 318°
2026-04-28 09:37 30.82650 27.82260 34086 ft 395 kts 318°
2026-04-28 09:37 30.91261 27.74443 34075 ft 395 kts 318°
2026-04-28 09:38 30.99918 27.66559 34082 ft 394 kts 318°
2026-04-28 09:38 31.08578 27.58674 34104 ft 394 kts 318°
2026-04-28 09:39 31.16098 27.49643 34082 ft 388 kts 302°
2026-04-28 09:39 31.22161 27.39206 34096 ft 388 kts 302°
2026-04-28 09:40 31.28220 27.28747 34103 ft 388 kts 302°
2026-04-28 09:40 31.35537 27.19556 34100 ft 396 kts 323°
2026-04-28 09:41 31.44845 27.12641 34120 ft 397 kts 323°
2026-04-28 09:41 31.54159 27.05649 34092 ft 398 kts 323°
2026-04-28 09:42 31.63502 26.98635 34087 ft 398 kts 323°
2026-04-28 09:42 31.72831 26.91607 34111 ft 398 kts 323°
2026-04-28 09:43 31.82180 26.84542 34083 ft 400 kts 323°
2026-04-28 09:43 31.91548 26.77453 34082 ft 400 kts 323°
2026-04-28 09:44 32.00916 26.70342 34078 ft 400 kts 323°
2026-04-28 09:44 32.10237 26.63268 34069 ft 402 kts 323°
2026-04-28 09:45 32.19655 26.56090 34065 ft 403 kts 323°
2026-04-28 09:45 32.29062 26.48902 34073 ft 402 kts 323°
2026-04-28 09:46 32.38463 26.41701 34079 ft 404 kts 323°
2026-04-28 09:46 32.47904 26.34439 34072 ft 404 kts 323°
2026-04-28 09:47 32.57352 26.27174 34069 ft 404 kts 323°